TimeEDT,TemperatureF,Dew PointF,Humidity,Sea Level PressureIn,VisibilityMPH,Wind Direction,Wind SpeedMPH,Gust SpeedMPH,PrecipitationIn,Events,Conditions,WindDirDegrees,DateUTC
12:54 AM,64.9,59.0,81,30.03,10.0,SSW,6.9,-,N/A,,Clear,210,2013-04-11 04:54:00
1:54 AM,64.0,59.0,84,30.02,10.0,SSW,5.8,-,N/A,,Clear,200,2013-04-11 05:54:00
2:54 AM,64.0,60.1,87,30.01,10.0,SW,8.1,-,N/A,,Clear,220,2013-04-11 06:54:00
3:54 AM,63.0,60.1,90,30.00,10.0,SSW,4.6,-,N/A,,Clear,200,2013-04-11 07:54:00
4:54 AM,62.1,59.0,90,30.00,10.0,SSW,4.6,-,N/A,,Clear,200,2013-04-11 08:54:00
5:54 AM,64.0,61.0,90,30.02,10.0,SW,6.9,-,N/A,,Clear,220,2013-04-11 09:54:00
6:54 AM,63.0,61.0,93,30.02,10.0,SW,5.8,-,N/A,,Clear,220,2013-04-11 10:54:00
7:54 AM,66.9,62.1,84,30.04,10.0,SW,4.6,-,N/A,,Clear,220,2013-04-11 11:54:00
8:54 AM,72.0,64.0,76,30.04,10.0,WSW,9.2,-,N/A,,Clear,240,2013-04-11 12:54:00
9:54 AM,77.0,63.0,62,30.04,10.0,SW,11.5,-,N/A,,Clear,230,2013-04-11 13:54:00
10:54 AM,79.0,64.0,60,30.03,10.0,WSW,12.7,20.7,N/A,,Mostly Cloudy,250,2013-04-11 14:54:00
11:54 AM,79.0,60.1,52,30.01,10.0,SW,15.0,23.0,N/A,,Mostly Cloudy,220,2013-04-11 15:54:00
1:54 PM,81.0,59.0,47,29.96,10.0,WSW,9.2,17.3,N/A,,Overcast,250,2013-04-11 17:54:00
2:54 PM,82.9,63.0,51,29.94,10.0,SSW,15.0,20.7,N/A,,Mostly Cloudy,200,2013-04-11 18:54:00
3:54 PM,82.0,64.0,54,29.90,10.0,South,13.8,25.3,N/A,,Scattered Clouds,190,2013-04-11 19:54:00
4:54 PM,80.1,64.0,58,29.90,10.0,South,15.0,25.3,N/A,,Mostly Cloudy,190,2013-04-11 20:54:00
5:54 PM,78.1,64.0,62,29.90,10.0,SSW,12.7,25.3,N/A,,Partly Cloudy,210,2013-04-11 21:54:00
6:54 PM,75.9,64.9,69,29.90,10.0,SSW,12.7,-,N/A,,Clear,200,2013-04-11 22:54:00
7:54 PM,73.9,66.0,76,29.90,10.0,South,12.7,19.6,N/A,,Clear,190,2013-04-11 23:54:00
8:54 PM,72.0,64.0,76,29.91,10.0,South,11.5,-,N/A,,Mostly Cloudy,190,2013-04-12 00:54:00
9:54 PM,70.0,64.0,81,29.92,10.0,SSW,8.1,-,N/A,,Clear,200,2013-04-12 01:54:00
10:54 PM,70.0,64.0,81,29.91,10.0,SSW,6.9,-,N/A,,Clear,200,2013-04-12 02:54:00
11:54 PM,70.0,64.9,84,29.90,10.0,South,6.9,-,N/A,,Clear,180,2013-04-12 03:54:00